Location: Unspecified
(40.7945°N, 111.1337°W)
Time: 12:20:55
(UTC-06:00)

Hubble Space Telescope - Pass Details

Date: 26 March 2019
Orbit: 537 x 540 km, 28.5° (Epoch: 24 April)

Event Time Altitude Azimuth Distance (km) Brightness Sun altitude
Rises 20:11:47 0° 217° (SW) 2,664 4.7 -6.3°
Reaches altitude 10° 20:16:10 10° 173° (S) 1,777 3.3 -7.1°
Maximum altitude 20:16:42 10° 166° (SSE) 1,764 3.2 -7.2°
Drops below altitude 10° 20:17:13 10° 159° (SSE) 1,778 3.1 -7.3°
Enters shadow 20:19:31 - 131° (SE) 2,108 3.3 -7.7°
